Flag for Kuwait Weather past 2 weeks in Kuwait City, Kuwait

Now
106 °F

Sunny.


Feels Like: 103 °F
Forecast: 89 / 113 °F
Wind: 15 mph from Northwest

Location: Kuwait International Airport

Current Time: Jul 29, 2014 at 10:40:50 AM

Latest Report: Jul 29, 2014 at 10:00 AM


Visibility: 10 mi

Pressure: 29.47 "Hg

Humidity: 15%

Dew point: 50 °F

Location of Kuwait CityLocation

Historic Weather in Kuwait City — Graph

°F

Kuwait City temperature yesterday

Maximum temperature yesterday: 113 °F (at 12:00 PM)
Minimum temperature yesterday: 95 °F (at 5:00 AM)
Average temperature yesterday: 104 °F

Past Weeks' High & Low Weather Summary

 TemperatureHumidityPressure
High120 °F (Jul 17, 2:00 PM)30% (Jul 21, 5:00 AM)29.65 "Hg (Jul 21, 5:00 AM)
Low82 °F (Jul 16, 4:00 AM)6% (Jul 15, 1:00 PM)29.36 "Hg (Jul 18, 4:00 PM)
Average104 °F14%29.49 "Hg
* Reported Jul 14 9:00 AM — Jul 29 9:00 AM, Kuwait City, Weather by CustomWeather, © 2014

Note: Actual official high and low records may vary slightly from our data, if they occured in-between our weather recording intervals... More about our weather records

Advertising

Kuwait City weather history for previous 24 hours

 ConditionsComfort  
Time TempWeatherWind HumidityBarometerVisibility
9:00 AM
Jul 29
104 °FSunny.15 mph17%29.47 "Hg10 mi
8:00 AM99 °FSunny.12 mph19%29.47 "Hg10 mi
7:00 AM91 °FSunny.10 mph21%29.47 "Hg10 mi
6:00 AM86 °FSunny.8 mph25%29.47 "Hg10 mi
5:00 AM86 °FClear.7 mph25%29.47 "Hg10 mi
4:00 AM86 °FClear.6 mph25%29.47 "Hg10 mi
3:00 AM88 °FClear.7 mph25%29.45 "Hg10 mi
2:00 AM95 °FClear.10 mph23%29.47 "Hg10 mi
1:00 AM97 °FClear.15 mph22%29.47 "Hg5 mi
12:00 AM97 °FClear.13 mph20%29.50 "Hg5 mi
11:00 PM
Jul 28
99 °FClear.15 mph18%29.50 "Hg5 mi
10:00 PM100 °FClear.16 mph16%29.53 "Hg4 mi
9:00 PM100 °FClear.18 mph15%29.53 "Hg4 mi
8:00 PM102 °FClear.21 mph14%29.53 "Hg4 mi
7:00 PM104 °FClear.20 mph12%29.50 "Hg3 mi
6:00 PM108 °FSunny.24 mph11%29.47 "Hg2 mi
5:00 PM109 °FSunny.23 mph10%29.47 "Hg2 mi
4:00 PM111 °FSunny.26 mph9%29.50 "Hg2 mi
3:00 PM111 °FSunny.29 mph9%29.50 "Hg2 mi
2:00 PM111 °FSunny.32 mph8%29.50 "Hg1 mi
1:00 PM113 °FSunny.30 mph7%29.56 "Hg1 mi
12:00 PM113 °FSunny.26 mph8%29.56 "Hg2 mi
11:00 AM109 °FSunny.22 mph12%29.59 "Hg10 mi
10:00 AM106 °FSunny.20 mph13%29.62 "Hg10 mi
Weather by CustomWeather, © 2014

See weather overviewHow to use our weather pages